Regional Weather Roundup
Issued by NWS Newport/Morehead, NC

Current Version | Previous Version | Graphics & Text | Print | Product List | Glossary Off
Versions: 1 2 3 4 5 6 7 8 9 10 11 12 13 14 15 16 17 18 19 20 21 22 23 24 25 26 27 28 29 30 31 32 33 34 35 36 37 38 39 40 41 42 43 44 45 46 47 48 49 50

000
ASUS42 KMHX 260513
RWRMHX
WEATHER ROUNDUP FOR EASTERN NORTH CAROLINA
NATIONAL WEATHER SERVICE NEWPORT/MOREHEAD CITY NC
100 AM EDT WED APR 26 2017

NOTE: "FAIR" INDICATES FEW OR NO CLOUDS BELOW 12,000 FEET
WITH NO SIGNIFICANT WEATHER AND/OR OBSTRUCTIONS TO VISIBILITY

NCZ015>017-031-032-045>047-102-103-260600-
NORTH COAST

CITY           SKY/WX    TMP DP  RH WIND       PRES   REMARKS
EDENTON        CLOUDY    65  61  87 CALM      29.70S
ELIZABETH CITY LGT RAIN  63  63 100 W5        29.68S
KITTY HAWK     CLOUDY    64  64 100 CALM      29.67S
MANTEO         MOCLDY    64  61  91 W3        29.69R

$$

NCZ045>047-081-094-103-104-260600-
CENTRAL COAST

CITY           SKY/WX    TMP DP  RH WIND       PRES   REMARKS
FRISCO         PTCLDY    67  63  87 W7        29.69S FOG

$$

NCZ095-097-098-100-101-260600-
SOUTHERN COAST

CITY           SKY/WX    TMP DP  RH WIND       PRES   REMARKS
BEAUFORT       CLEAR     63  62  97 W9        29.73R
CEDAR ISLAND   NOT AVBL
JACKSONVILLE   CLEAR     60  60 100 W5        29.73S
PINEY ISLAND   CLEAR    N/A N/A N/A W10       29.71S
WILMINGTON     CLEAR     61  60  97 W8        29.75S


$$

NCZ011>013-027>030-043-044-078>080-089-090>093-098-260600-
COASTAL PLAIN

CITY           SKY/WX    TMP DP  RH WIND       PRES   REMARKS
AHOSKIE        DRIZZLE   62  61  98 CALM      29.72R
CLINTON        CLOUDY    62  61  97 CALM      29.76R
ELIZABETHTOWN  MOCLDY    63  61  93 CALM      29.76S
GOLDSBORO      CLOUDY    61  61 100 W6        29.72R
GREENVILLE     CLOUDY    63  63 100 W6        29.75S
HAVELOCK       NOT AVBL
KENANSVILLE    PTCLDY    57  57 100 SW3       29.75R FOG
KINSTON        CLOUDY    61  60  96 CALM      29.74R
NEW BERN       CLEAR     61  60  97 SW6       29.73S
RICHLANDS      CLEAR     59  59 100 SW5       29.74S
ROCKY MOUNT    CLOUDY    63  60  90 NW8       29.73R
WASHINGTON     MOCLDY    62  60  95 W3        29.72R
WHITEVILLE     PTCLDY    62  59  91 CALM      29.77R

$$

AMZ130-135-150-152-154-156-158-170-250-252-270-ANZ085-086-088-633-658-670-260600-
MARINE OBSERVATIONS

STATION/POSITION TIME  TEMP    WIND        PRES    WAVE   SWELL
                       AIR SEA DIR/SP/G            HT/PER HT/PER
                 (UTC) (F)     (DEG/KT/KT) (MB)    (FT/S) (FT/S)
CHESAPEAKE LIGHT NOT AVBL
64 E VA BEACH    0450   56 54  210/  4/  6 1005.1    9/10   8/10
DUCK             0442   65 58  280/  6/  7 1004.4
2 E DUCK         0500      60                N/A     5/10   2/11
OREGON INLET     0448          230/  8/  9   N/A
13E OREGON INLT  0448      59                N/A     6/ 9   7/ 9
HATTERAS CG      0442   67 68  250/ 10/ 14 1005.1
DIAMOND BUOY     0450   71 77  270/ 17/ 23 1005.3    9/10   7/10
CAPE LOOKOUT     0500   65     280/ 14/ 16 1006.2
BEAUFORT LAB     0442   64 66  280/  4/  8 1005.8
30 SE NEW RVR IN 0408   66     280/ 14/ 19 1006.7
30 SE NEW RVR IN 0443      71                N/A     7/ 9   2/11
27 SE WRIGHTSVLE 0408   66 71  270/ 16/ 21 1006.4
5 SE WRIGHTSVLE  0408   64 70  280/ 14/ 19 1007.2
225 S CAPE HAT   0450   73 75  230/ 19/ 25 1009.3    9/ 8   3/10
41 SE CHARLESTON 0450   72 72  250/ 10/ 12 1008.9    5/ 9   3/ 9

$$




USA.gov is the U.S. government's official web portal to all federal, state and local government web resources and services.